カタログに戻る

SL-8 R/B

運用中LEO
NORAD 23432·ROCKET BODY·🇷🇺 Russia

打ち上げ Dec 20, 1994 から Plesetsk Cosmodrome

Loading…

次のパス (今後24時間)

TLE

最新Source: Space-Track

元期: Sep 14, 2026, 09:18 UTC

1 23432U 94083B   26257.38803488  .00000227  00000-0  89663-4 0  9999
2 23432  74.0295 241.1414 0005736 339.9852 169.7940 14.34499484659949

AllMySatでSL-8 R/Bをリアルタイム追跡

Download on the App Store